Niagara Falls, NY

4:39 AM EDT on May 24, 2017 (GMT -0400)
Niagara Falls International

Weather History for KIAG - September, 2013

Change the Weather History Date:

Saturday, September 21, 2013

  Actual Average Record
Temperature  
Mean Temperature 63 °F -  
Max Temperature 73 °F 68 °F 82 °F (1989)
Min Temperature 52 °F 48 °F 41 °F (1991)
Degree Days  
Heating Degree Days 2    
Growing Degree Days 13 (Base 50)    
Moisture  
Dew Point 59 °F    
Average Humidity 90    
Maximum Humidity 100    
Minimum Humidity 73    
Precipitation  
Precipitation 1.65 in - - ()
Sea Level Pressure  
Sea Level Pressure 29.68 in    
Wind  
Wind Speed 10 mph (SW)    
Max Wind Speed 30 mph    
Max Gust Speed 38 mph    
Visibility 6 miles    
Events Rain    
Averages and records for this station are not official NWS values.
T = Trace of Precipitation, MM = Missing Value Source: NWS Daily Summary

Daily Weather History Graph

Daily Weather History Graph

Search for Another Location

Airport or City:

Trip Planner

Search our weather history database for the weather conditions in past years. The results will help you decide how hot, cold, wet, or windy it might be!

Date:

Astronomy

Sep. 21, 2013 Rise Set
Actual Time 7:02 AM EDT 7:14 PM EDT
Civil Twilight 6:33 AM EDT 7:42 PM EDT
Nautical Twilight 6:00 AM EDT 8:16 PM EDT
Astronomical Twilight 5:26 AM EDT 8:50 PM EDT
Moon 8:18 PM EDT (9/21) 9:23 AM EDT (9/21)
Length of Visible Light 13h 09m
Length of Day
12h 12m
Waning Gibbous, 94% of the Moon is Illuminated
Sep 21
Waning Gibbous
Sep 26
Last Quarter
Oct 4
New
Oct 11
First Quarter
Oct 18
Full

Hourly Weather History & Observations

Time (EDT) Temp. Dew Point Humidity Pressure Visibility Wind Dir Wind Speed Gust Speed Precip Events Conditions
12:53 AM 73.0 °F 64.0 °F 73% 29.72 in 10.0 mi SSW 10.4 mph - N/A   Overcast
1:18 AM 73.4 °F 64.4 °F 73% 29.73 in 10.0 mi SW 15.0 mph - N/A   Overcast
1:48 AM 71.6 °F 64.4 °F 78% 29.73 in 10.0 mi SW 10.4 mph - 0.00 in   Overcast
1:53 AM 71.1 °F 64.9 °F 81% 29.72 in 10.0 mi SW 12.7 mph - 0.00 in   Overcast
2:53 AM 70.0 °F 66.0 °F 87% 29.70 in 10.0 mi SSW 15.0 mph 21.9 mph 0.00 in Rain Light Rain
3:19 AM 69.8 °F 66.2 °F 88% 29.71 in 10.0 mi SSW 10.4 mph - 0.00 in   Overcast
3:53 AM 69.1 °F 66.0 °F 90% 29.69 in 10.0 mi SSW 11.5 mph - 0.00 in   Overcast
4:23 AM 68.0 °F 66.2 °F 94% 29.70 in 1.8 mi WSW 11.5 mph - 0.13 in Rain Heavy Rain
4:26 AM 68.0 °F 66.2 °F 94% 29.70 in 1.2 mi WSW 11.5 mph - 0.19 in Rain Heavy Rain
4:32 AM 66.2 °F 64.4 °F 94% 29.70 in 1.5 mi SW 12.7 mph 19.6 mph 0.24 in Rain Heavy Rain
4:35 AM 66.2 °F 64.4 °F 94% 29.69 in 2.0 mi SW 11.5 mph - 0.26 in Rain Heavy Rain
4:43 AM 66.2 °F 64.4 °F 94% 29.70 in 4.0 mi SW 8.1 mph - 0.28 in Rain Rain
4:53 AM 66.9 °F 64.9 °F 93% 29.69 in 7.0 mi SW 8.1 mph - 0.29 in Rain Light Rain
5:30 AM 66.2 °F 64.4 °F 94% 29.70 in 10.0 mi SW 5.8 mph - 0.07 in Rain Light Rain
5:53 AM 66.9 °F 64.9 °F 93% 29.68 in 5.0 mi WSW 5.8 mph - 0.08 in Rain Light Rain
6:51 AM 62.6 °F 60.8 °F 94% 29.69 in 10.0 mi NNW 4.6 mph - 0.07 in Rain Light Rain
6:53 AM 63.0 °F 60.1 °F 90% 29.68 in 10.0 mi North 3.5 mph - 0.07 in Rain Light Rain
7:05 AM 62.6 °F 60.8 °F 94% 29.69 in 2.5 mi West 4.6 mph - 0.05 in Rain Heavy Rain
7:15 AM 62.6 °F 60.8 °F 94% 29.70 in 3.0 mi West 3.5 mph - 0.11 in Rain Heavy Rain
7:53 AM 62.1 °F 60.1 °F 93% 29.68 in 3.0 mi NNW 3.5 mph - 0.19 in Rain Heavy Rain
8:51 AM 62.6 °F 60.8 °F 94% 29.66 in 2.5 mi East 5.8 mph - 0.18 in Rain Rain
8:53 AM 62.1 °F 60.1 °F 93% 29.66 in 2.5 mi ENE 4.6 mph - 0.19 in Rain Heavy Rain
8:55 AM 62.6 °F 60.8 °F 94% 29.66 in 3.0 mi ENE 4.6 mph - 0.00 in Rain Heavy Rain
9:21 AM 62.6 °F 60.8 °F 94% 29.70 in 2.0 mi South 5.8 mph - 0.08 in Rain Heavy Rain
9:29 AM 60.8 °F 60.8 °F 100% 29.70 in 3.0 mi SSE 5.8 mph - 0.13 in Rain Rain
9:53 AM 61.0 °F 60.1 °F 97% 29.70 in 3.0 mi South 3.5 mph - 0.20 in Rain Heavy Rain
10:46 AM 62.6 °F 60.8 °F 94% 29.70 in 4.0 mi South 4.6 mph - 0.11 in Rain Rain
10:53 AM 62.1 °F 60.1 °F 93% 29.70 in 4.0 mi SSW 5.8 mph - 0.13 in Rain Rain
11:09 AM 62.6 °F 60.8 °F 94% 29.69 in 5.0 mi South 5.8 mph - 0.02 in Rain Light Rain
11:53 AM 62.1 °F 60.1 °F 93% 29.70 in 4.0 mi South 6.9 mph - 0.08 in Rain Rain
12:45 PM 62.6 °F 59.0 °F 88% 29.69 in 7.0 mi SW 6.9 mph - 0.05 in Rain Light Rain
12:53 PM 62.1 °F 59.0 °F 90% 29.68 in 8.0 mi SW 6.9 mph - 0.05 in Rain Light Rain
1:53 PM 62.1 °F 59.0 °F 90% 29.67 in 8.0 mi South 5.8 mph - 0.03 in Rain Light Rain
2:53 PM 61.0 °F 59.0 °F 93% 29.65 in 5.0 mi SSE 10.4 mph - 0.05 in Rain Light Rain
3:53 PM 60.1 °F 57.9 °F 93% 29.63 in 6.0 mi SSE 10.4 mph - 0.05 in Rain Light Rain
4:53 PM 60.1 °F 57.9 °F 93% 29.63 in 10.0 mi SSE 8.1 mph - 0.04 in Rain Light Rain
5:46 PM 60.8 °F 57.2 °F 88% 29.63 in 3.0 mi South 6.9 mph - 0.02 in Rain Rain
5:53 PM 60.1 °F 57.9 °F 93% 29.63 in 3.0 mi SSE 5.8 mph - 0.03 in Rain Light Rain
6:00 PM 60.8 °F 57.2 °F 88% 29.63 in 5.0 mi SE 5.8 mph - 0.00 in Rain Light Rain
6:22 PM 60.8 °F 57.2 °F 88% 29.63 in 10.0 mi SE 3.5 mph - 0.00 in   Overcast
6:53 PM 60.1 °F 57.9 °F 93% 29.63 in 10.0 mi SE 5.8 mph - 0.00 in   Overcast
7:04 PM 60.8 °F 57.2 °F 88% 29.62 in 10.0 mi SE 5.8 mph - 0.00 in Rain Light Rain
7:07 PM 60.8 °F 57.2 °F 88% 29.63 in 3.0 mi SSE 5.8 mph - 0.04 in Rain Light Rain
7:09 PM 60.8 °F 57.2 °F 88% 29.62 in 3.0 mi SSE 9.2 mph - 0.05 in Rain Heavy Rain
7:14 PM 60.8 °F 57.2 °F 88% 29.63 in 2.5 mi NW 29.9 mph 38.0 mph 0.07 in   Overcast
7:16 PM 59.0 °F 55.4 °F 88% 29.64 in 2.5 mi NNW 21.9 mph 38.0 mph 0.08 in Rain Rain
7:19 PM 57.2 °F 53.6 °F 88% 29.66 in 3.0 mi NW 24.2 mph 38.0 mph 0.09 in Rain Heavy Rain
7:26 PM 55.4 °F 53.6 °F 94% 29.67 in 5.0 mi NW 20.7 mph - 0.09 in Rain Light Rain
7:34 PM 55.4 °F 53.6 °F 94% 29.68 in 7.0 mi NW 18.4 mph 27.6 mph 0.09 in Rain Light Rain
7:37 PM 55.4 °F 53.6 °F 94% 29.68 in 6.0 mi NW 16.1 mph 27.6 mph 0.10 in Rain Light Rain
7:43 PM 55.4 °F 53.6 °F 94% 29.68 in 3.0 mi NW 23.0 mph 32.2 mph 0.12 in Rain Heavy Rain
7:53 PM 55.0 °F 53.1 °F 93% 29.69 in 3.0 mi NW 20.7 mph 28.8 mph 0.15 in Rain Heavy Rain
8:03 PM 55.4 °F 53.6 °F 94% 29.69 in 4.0 mi NW 17.3 mph 25.3 mph 0.01 in Rain Light Rain
8:16 PM 55.4 °F 53.6 °F 94% 29.70 in 10.0 mi NNW 10.4 mph 20.7 mph 0.02 in Rain Light Rain
8:24 PM 55.4 °F 53.6 °F 94% 29.70 in 10.0 mi NW 10.4 mph - 0.02 in   Mostly Cloudy
8:53 PM 55.0 °F 51.1 °F 86% 29.72 in 10.0 mi NW 11.5 mph - 0.02 in   Mostly Cloudy
9:53 PM 55.0 °F 48.0 °F 77% 29.74 in 10.0 mi NW 11.5 mph - N/A   Overcast
10:53 PM 53.6 °F 48.2 °F 82% 29.77 in 10.0 mi West 5.8 mph - N/A   Overcast
11:53 PM 52.0 °F 46.9 °F 83% 29.78 in 10.0 mi West 9.2 mph - N/A   Overcast